TimeHST,TemperatureF,Dew PointF,Humidity,Sea Level PressureIn,VisibilityMPH,Wind Direction,Wind SpeedMPH,Gust SpeedMPH,PrecipitationIn,Events,Conditions,WindDirDegrees,DateUTC
12:53 AM,69.1,64.9,87,30.11,10.0,Calm,Calm,-,N/A,,Scattered Clouds,0,2012-01-09 10:53:00
1:53 AM,70.0,64.9,84,30.10,10.0,Calm,Calm,-,N/A,,Scattered Clouds,0,2012-01-09 11:53:00
2:53 AM,68.0,64.0,87,30.09,10.0,Calm,Calm,-,N/A,,Scattered Clouds,0,2012-01-09 12:53:00
3:53 AM,68.0,64.9,90,30.08,10.0,Calm,Calm,-,N/A,,Scattered Clouds,0,2012-01-09 13:53:00
4:53 AM,70.0,63.0,78,30.08,10.0,ENE,5.8,-,N/A,,Scattered Clouds,60,2012-01-09 14:53:00
5:53 AM,66.2,62.6,88,30.08,10.0,Calm,Calm,-,N/A,,Scattered Clouds,0,2012-01-09 15:53:00
6:53 AM,69.1,64.0,84,30.10,10.0,ENE,4.6,-,N/A,,Scattered Clouds,60,2012-01-09 16:53:00
7:53 AM,70.0,64.9,84,30.11,10.0,North,4.6,-,N/A,,Scattered Clouds,360,2012-01-09 17:53:00
8:53 AM,75.0,64.0,69,30.12,10.0,ENE,6.9,-,N/A,,Scattered Clouds,60,2012-01-09 18:53:00
9:53 AM,77.0,63.0,62,30.13,10.0,East,8.1,-,N/A,,Scattered Clouds,90,2012-01-09 19:53:00
10:53 AM,79.0,62.1,56,30.11,10.0,East,12.7,-,N/A,,Scattered Clouds,90,2012-01-09 20:53:00
11:53 AM,81.0,62.1,52,30.09,10.0,NNE,12.7,-,N/A,,Scattered Clouds,30,2012-01-09 21:53:00
12:53 PM,81.0,61.0,50,30.06,10.0,East,12.7,-,N/A,,Scattered Clouds,80,2012-01-09 22:53:00
1:53 PM,81.0,61.0,50,30.05,10.0,ENE,13.8,-,N/A,,Scattered Clouds,60,2012-01-09 23:53:00
2:53 PM,81.0,60.1,49,30.05,10.0,ENE,15.0,21.9,N/A,,Scattered Clouds,60,2012-01-10 00:53:00
3:53 PM,80.1,60.1,50,30.05,10.0,NE,9.2,-,N/A,,Scattered Clouds,50,2012-01-10 01:53:00
4:53 PM,78.1,62.1,58,30.06,10.0,ENE,9.2,-,N/A,,Scattered Clouds,60,2012-01-10 02:53:00
5:53 PM,75.9,62.1,62,30.08,10.0,NE,11.5,-,N/A,,Scattered Clouds,40,2012-01-10 03:53:00
6:53 PM,73.9,63.0,68,30.09,10.0,North,3.5,-,N/A,,Partly Cloudy,360,2012-01-10 04:53:00
7:53 PM,72.0,63.0,73,30.11,10.0,Calm,Calm,-,N/A,,Partly Cloudy,0,2012-01-10 05:53:00
8:53 PM,73.9,64.0,71,30.12,10.0,Calm,Calm,-,N/A,,Partly Cloudy,0,2012-01-10 06:53:00
9:53 PM,72.0,64.0,76,30.12,10.0,NW,3.5,-,N/A,,Partly Cloudy,320,2012-01-10 07:53:00
10:53 PM,72.0,64.0,76,30.12,10.0,Calm,Calm,-,N/A,,Scattered Clouds,0,2012-01-10 08:53:00
11:53 PM,72.0,66.9,84,30.11,10.0,ENE,6.9,-,0.00,,Scattered Clouds,60,2012-01-10 09:53:00